[[{"header":{"parameterUnit":"m.s-1","parameterCategory":1,"la1":30.2991,"la2":30.254,"lo1":-89.0895,"lo2":-89.0444,"dy":0.0017,"dx":0.0017,"nx":28,"ny":28,"refTime":"2025-12-22T09:00:00:Z","depth":0,"parameterNumber":2,"parameterNumberName":"U-component_of_WINDS"},"data":[0,0,0,0,0,0,0,0,0,0,0,0,0,0,0,0,0,0,0,0,0,0,0,0,0,0,0,0,0,0,0,0,0,0,0,0,0,0,0,0,0,0,0,0,0,0,0,0,0,0,0,0,0,0,0,0,0,0,-2.6272,-2.6273,0,-2.6298,-2.6298,-2.6299,-2.6263,-2.6262,-2.6261,-2.626,-2.6286,-2.6288,-2.629,0,0,0,0,0,0,0,0,0,0,0,0,0,-2.6193,-2.6195,-2.6272,-2.6273,-2.6273,-2.6298,-2.6299,-2.6299,-2.6264,-2.6262,-2.6261,-2.6259,-2.6285,-2.6288,-2.629,0,0,0,0,0,0,0,0,0,0,0,0,0,-2.6224,-2.6196,-2.6272,-2.6259,-2.6258,-2.6298,-2.6299,-2.6299,-2.6264,-2.6262,-2.626,-2.6258,-2.6285,-2.6287,-2.629,-2.6345,0,0,-2.6299,-2.63,0,0,0,0,0,0,0,0,-2.6223,-2.6227,-2.626,-2.626,-2.6259,-2.6276,-2.628,-2.6314,-2.6265,-2.6262,-2.626,-2.6258,-2.6284,-2.6287,-2.6296,-2.6346,-2.6348,-2.6299,-2.6301,-2.6302,-2.6303,0,0,0,0,0,0,0,-2.622,-2.6226,-2.6283,-2.6261,-2.626,-2.6251,-2.6254,-2.6287,-2.6283,-2.6262,-2.6259,-2.6263,-2.6283,-2.6293,-2.6296,-2.6348,-2.6299,-2.6301,-2.6303,-2.6304,-2.6446,-2.6448,0,0,0,0,0,0,-2.622,-2.6224,-2.6282,-2.6283,-2.6236,-2.6254,-2.6257,-2.6272,-2.6283,-2.6282,-2.6264,-2.6261,-2.6289,-2.6293,-2.6297,-2.6362,-2.6302,-2.6304,-2.6306,-2.6444,-2.6446,-2.6449,0,0,0,0,0,0,-2.6218,-2.6225,-2.6281,-2.6253,-2.626,-2.6258,-2.6275,-2.6274,-2.6283,-2.6285,-2.6284,-2.6275,-2.6288,-2.6293,-2.6334,-2.6362,-2.6306,-2.6308,-2.6442,-2.6445,-2.6448,-2.6493,0,0,0,0,0,0,-2.6216,-2.6225,-2.6246,-2.6254,-2.6261,-2.6317,-2.6277,-2.6275,-2.6288,-2.6284,-2.6294,-2.6294,-2.6287,-2.633,-2.6336,-2.6365,-2.631,-2.6439,-2.6443,-2.6447,-2.6489,-2.6497,-2.6505,0,0,0,0,0,-2.6214,-2.6257,-2.6247,-2.6254,-2.6287,-2.6319,-2.6323,-2.6313,-2.6291,-2.6312,-2.6313,-2.6294,-2.6359,-2.6334,-2.6341,-2.6372,-2.6437,-2.6442,-2.6446,-2.6485,-2.6496,-2.6504,0,0,0,0,0,0,-2.6252,-2.6258,-2.6247,-2.6294,-2.6306,-2.6313,-2.6338,-2.6324,-2.6343,-2.6338,-2.6326,-2.6328,-2.6372,-2.6376,-2.6349,-2.6426,-2.6394,-2.6401,-2.6421,-2.6431,-2.6439,-2.6436,-2.6313,0,0,0,0,0,-2.6266,-2.6291,-2.6295,-2.6337,-2.6344,-2.634,-2.6354,-2.6346,-2.6357,-2.6362,-2.6366,-2.6378,-2.6401,-2.6417,-2.6438,-2.649,-2.6492,-2.6515,-2.6522,-2.6529,-2.6534,-2.6562,-2.6572,-2.6464,-2.6464,-2.6464,0,0,-2.6295,-2.6302,-2.6318,-2.6345,-2.6353,-2.638,-2.6345,-2.6374,-2.6393,-2.6367,-2.6405,-2.6409,-2.6422,-2.6468,-2.6489,-2.6473,-2.6565,-2.6535,-2.654,-2.6542,-2.6568,-2.6578,-2.6587,-2.6467,-2.6467,-2.6466,0,0,-2.6362,-2.6369,-2.6405,-2.6414,-2.6427,-2.6425,-2.6434,-2.6443,-2.6444,-2.6483,-2.6464,-2.6487,-2.6527,-2.6537,-2.6547,-2.662,-2.6603,-2.6627,-2.6667,-2.6695,-2.6704,-2.6711,-2.6736,-2.6746,-2.6633,-2.6633,-2.6633,0,-2.6396,-2.6435,-2.6425,-2.6456,-2.6468,-2.6446,-2.6482,-2.6492,-2.6511,-2.6521,-2.6503,-2.6553,-2.656,-2.6609,-2.6627,-2.6636,-2.6646,-2.6625,-2.6703,-2.6711,-2.6717,-2.6741,-2.6751,-2.6636,-2.6635,-2.6635,-2.6635,0,-2.6476,-2.6504,-2.6531,-2.6551,-2.6566,-2.66,-2.6595,-2.6613,-2.6604,-2.6604,-2.6644,-2.6652,-2.6675,-2.6686,-2.6678,-2.6734,-2.6724,-2.6705,-2.6672,-2.6731,-2.6753,-2.6762,-2.664,-2.6639,-2.6638,-2.6637,0,0,-2.6565,-2.6581,-2.6591,-2.66,-2.6614,-2.6635,-2.6668,-2.669,-2.6705,-2.672,-2.6747,-2.6783,-2.6765,-2.6777,-2.677,-2.6795,-2.6851,-2.6773,-2.6773,-2.6786,-2.6914,-2.6927,-2.6938,-2.6841,-2.6843,-2.6844,-2.6913,0,-2.6631,-2.6688,-2.6681,-2.6735,-2.676,-2.674,-2.6769,-2.6781,-2.6782,-2.6804,-2.6806,-2.6831,-2.6807,-2.6814,-2.6837,-2.6839,-2.6876,-2.6834,-2.6866,-2.6867,-2.6862,-2.695,-2.6964,-2.7028,-2.6921,-2.6923,-2.6924,0,-2.6715,-2.6733,-2.679,-2.6801,-2.6811,-2.6837,-2.6857,-2.6879,-2.6892,-2.6892,-2.6906,-2.6895,-2.6928,-2.6897,-2.6943,-2.6914,-2.6927,-2.693,-2.6933,-2.6934,-2.6898,-2.6953,-2.7048,-2.7057,-2.6938,-2.6937,-2.6936,0,-2.6773,-2.6812,-2.6851,-2.686,-2.6874,-2.6892,-2.6899,-2.6911,-2.6925,-2.6943,-2.6953,-2.6975,-2.6987,-2.7004,-2.7,-2.6977,-2.7047,-2.7015,-2.7047,-2.7047,-2.7061,-2.706,-2.7159,-2.7072,-2.7071,-2.7071,-2.7071,0,-2.6847,-2.6882,-2.6878,-2.6902,-2.6941,-2.6933,-2.6973,-2.6977,-2.6988,-2.7013,-2.6998,-2.7021,-2.7014,-2.7038,-2.7034,-2.7073,-2.7079,-2.7079,-2.7077,-2.708,-2.7079,-2.7087,-2.7082,-2.7074,-2.7073,-2.7073,-2.7072,0,-2.6918,-2.6917,-2.6958,-2.6968,-2.6972,-2.7,-2.7009,-2.7032,-2.7032,-2.7064,-2.7071,-2.7072,-2.7099,-2.7097,-2.7127,-2.7125,-2.7172,-2.7166,-2.7168,-2.7166,-2.7198,-2.7195,-2.7304,-2.7318,-2.7223,-2.7224,-2.7224,0,-2.6964,-2.6991,-2.7004,-2.702,-2.7028,-2.7053,-2.7068,-2.7062,-2.7078,-2.7096,-2.7117,-2.7143,-2.7163,-2.7207,-2.7211,-2.7234,-2.7227,-2.7264,-2.7231,-2.7232,-2.7227,-2.7225,-2.7228,-2.727,-2.7271,-2.7272,-2.7273,0,-2.7046,-2.7045,-2.7066,-2.7089,-2.7107,-2.7124,-2.7139,-2.7153,-2.7149,-2.7168,-2.7195,-2.7211,-2.7243,-2.7268,-2.7291,-2.7298,-2.7285,-2.7284,-2.7292,-2.7294,-2.7294,-2.7294,-2.7185,-2.7281,-2.728,-2.7279,-2.7279,-2.7279,-2.7106,-2.7129,-2.7142,-2.7167,-2.7178,-2.7194,-2.7216,-2.722,-2.7242,-2.7267,-2.7263,-2.7294,-2.7308,-2.7337,-2.7346,-2.7371,-2.7357,-2.737,-2.7373,-2.7376,-2.7379,-2.7291,-2.7375,-2.7375,-2.7375,-2.7374,-2.7374,0,-2.7186,-2.7194,-2.7217,-2.724,-2.726,-2.7247,-2.7264,-2.7281,-2.7309,-2.7323,-2.7344,-2.7376,-2.7401,-2.7407,-2.7432,-2.745,-2.7445,-2.7457,-2.7455,-2.7457,-2.739,-2.738,-2.7461,-2.7461,-2.7461,-2.7461,-2.7461,-2.746,-2.723,-2.7268,-2.7269,-2.7313,-2.7321,-2.7351,-2.7362,-2.7376,-2.7387,-2.7424,-2.7445,-2.7449,-2.746,-2.7486,-2.7509,-2.751,-2.7519,-2.7533,-2.7532,-2.747,-2.7461,-2.7453,-2.7443,-2.7536,-2.7536,-2.7597,-2.7597,-2.7598]},{"header":{"parameterUnit":"m.s-1","parameterCategory":1,"la1":30.2991,"la2":30.254,"lo1":-89.0895,"lo2":-89.0444,"dy":0.0017,"dx":0.0017,"nx":28,"ny":28,"refTime":"2025-12-22T09:00:00:Z","depth":0,"parameterNumber":3,"parameterNumberName":"V-component_of_WINDS"},"data":[0,0,0,0,0,0,0,0,0,0,0,0,0,0,0,0,0,0,0,0,0,0,0,0,0,0,0,0,0,0,0,0,0,0,0,0,0,0,0,0,0,0,0,0,0,0,0,0,0,0,0,0,0,0,0,0,0,0,1.8351,1.8352,0,1.8443,1.8444,1.8445,1.847,1.8469,1.8469,1.8468,1.8561,1.8564,1.8567,0,0,0,0,0,0,0,0,0,0,0,0,0,1.8195,1.8198,1.8351,1.8352,1.8353,1.8443,1.8444,1.8445,1.847,1.8469,1.8469,1.8468,1.856,1.8563,1.8567,0,0,0,0,0,0,0,0,0,0,0,0,0,1.8272,1.8199,1.835,1.8376,1.8379,1.8443,1.8444,1.8446,1.847,1.8469,1.8468,1.8468,1.8559,1.8563,1.8567,1.8611,0,0,1.8581,1.8583,0,0,0,0,0,0,0,0,1.8268,1.8278,1.8371,1.8374,1.8378,1.8444,1.8423,1.8501,1.847,1.8436,1.8468,1.8467,1.8522,1.853,1.8549,1.8616,1.862,1.8581,1.8584,1.8586,1.8587,0,0,0,0,0,0,0,1.8263,1.8274,1.8387,1.8372,1.8377,1.8383,1.8393,1.8438,1.8482,1.8438,1.844,1.8451,1.8524,1.8545,1.8551,1.8621,1.8581,1.8585,1.8588,1.859,1.8731,1.8732,0,0,0,0,0,0,1.8253,1.827,1.8384,1.839,1.832,1.8386,1.8398,1.8424,1.8482,1.849,1.8452,1.8452,1.8537,1.8546,1.8555,1.8612,1.8586,1.859,1.8593,1.873,1.8731,1.8732,0,0,0,0,0,0,1.825,1.8263,1.8381,1.8331,1.8346,1.839,1.8419,1.8426,1.8446,1.8492,1.85,1.8465,1.8537,1.8548,1.8598,1.8615,1.8592,1.8596,1.8729,1.873,1.8732,1.8725,0,0,0,0,0,0,1.8245,1.8262,1.8279,1.8331,1.8348,1.8422,1.842,1.8428,1.8454,1.8455,1.8506,1.8514,1.8537,1.8591,1.8602,1.8621,1.86,1.8727,1.8729,1.8731,1.8724,1.8727,1.8729,0,0,0,0,0,1.8239,1.8272,1.8279,1.8293,1.8371,1.8423,1.8433,1.846,1.8455,1.8473,1.8503,1.8512,1.8611,1.8596,1.8609,1.8629,1.8726,1.8729,1.8731,1.8723,1.8726,1.8729,0,0,0,0,0,0,1.822,1.8279,1.8288,1.8339,1.8376,1.8427,1.845,1.8462,1.8501,1.85,1.8531,1.8543,1.859,1.8614,1.8596,1.8676,1.8669,1.8674,1.8659,1.8662,1.8664,1.8658,1.8603,0,0,0,0,0,1.8222,1.826,1.8309,1.8349,1.8368,1.8406,1.8429,1.8447,1.8487,1.8502,1.8535,1.8573,1.8613,1.8638,1.8677,1.8728,1.874,1.8748,1.875,1.8752,1.8756,1.8787,1.8792,1.874,1.874,1.874,0,0,1.8225,1.8263,1.8284,1.8346,1.8377,1.8416,1.8419,1.8459,1.8488,1.8508,1.8558,1.8583,1.8627,1.8678,1.8702,1.87,1.8773,1.8755,1.8756,1.876,1.879,1.8795,1.8799,1.8742,1.8742,1.8741,0,0,1.8253,1.8284,1.8322,1.8353,1.8401,1.8426,1.8435,1.8485,1.8504,1.8554,1.857,1.8605,1.8673,1.8705,1.8729,1.8771,1.8781,1.8782,1.8794,1.8824,1.8828,1.8831,1.8848,1.8854,1.8786,1.8786,1.8786,0,1.8251,1.8311,1.834,1.838,1.8408,1.8429,1.8468,1.8497,1.8554,1.8572,1.8569,1.8656,1.8687,1.8746,1.8757,1.8775,1.8788,1.8777,1.8825,1.8829,1.8833,1.8849,1.8855,1.8786,1.8786,1.8786,1.8786,0,1.8308,1.8349,1.8374,1.843,1.846,1.85,1.8535,1.8562,1.8578,1.8604,1.8656,1.8694,1.8742,1.8757,1.8772,1.8819,1.8817,1.8819,1.8812,1.8837,1.8853,1.886,1.8786,1.8786,1.8786,1.8786,0,0,1.8325,1.8398,1.8407,1.8434,1.8489,1.8521,1.8562,1.861,1.8634,1.8672,1.8708,1.8766,1.8769,1.8797,1.8816,1.8842,1.8875,1.8841,1.8842,1.8847,1.8932,1.8931,1.8938,1.8882,1.8883,1.8884,1.8929,0,1.836,1.8435,1.8463,1.8525,1.8564,1.8585,1.8621,1.8659,1.8684,1.8721,1.8749,1.8791,1.879,1.8808,1.8834,1.8865,1.8892,1.8862,1.8916,1.8918,1.8906,1.8946,1.8945,1.8986,1.8935,1.8936,1.8937,0,1.8412,1.8453,1.8519,1.8571,1.8588,1.862,1.8668,1.8703,1.8746,1.8763,1.8796,1.8813,1.8858,1.8848,1.891,1.8889,1.8913,1.8932,1.8934,1.8941,1.893,1.8956,1.8999,1.9006,1.8946,1.8946,1.8945,0,1.842,1.8492,1.8541,1.8563,1.8624,1.8647,1.8673,1.8716,1.8744,1.8785,1.8804,1.885,1.8875,1.891,1.894,1.893,1.9,1.8992,1.9016,1.9016,1.9031,1.903,1.908,1.9044,1.9043,1.9043,1.9043,0,1.8458,1.8497,1.8546,1.8577,1.8623,1.8654,1.8699,1.8726,1.8765,1.8801,1.8821,1.8855,1.8892,1.893,1.8954,1.9003,1.9014,1.9029,1.9035,1.9029,1.9027,1.9045,1.9044,1.9045,1.9045,1.9044,1.9044,0,1.8475,1.8509,1.8565,1.8619,1.8633,1.8665,1.8711,1.8742,1.8769,1.8815,1.8828,1.887,1.8917,1.895,1.9009,1.9025,1.9079,1.9084,1.9065,1.9068,1.9091,1.9089,1.9157,1.9168,1.9122,1.9122,1.9122,0,1.8498,1.8529,1.8587,1.8614,1.864,1.8682,1.8712,1.8744,1.8774,1.8827,1.8852,1.89,1.8941,1.9015,1.9051,1.9098,1.9105,1.9125,1.9112,1.9105,1.9108,1.9106,1.911,1.9128,1.9128,1.9128,1.9128,0,1.8535,1.8551,1.8592,1.8641,1.8676,1.8715,1.8754,1.8775,1.8815,1.8847,1.8896,1.8928,1.899,1.9039,1.9089,1.9116,1.913,1.9132,1.9141,1.9135,1.9123,1.9132,1.9072,1.9131,1.9131,1.913,1.913,1.913,1.8557,1.8587,1.8633,1.8679,1.8713,1.875,1.8782,1.8814,1.8856,1.891,1.8926,1.8978,1.9022,1.9091,1.9119,1.916,1.9159,1.917,1.9173,1.9176,1.9177,1.9116,1.9169,1.9169,1.9169,1.9169,1.9169,0,1.8597,1.8628,1.867,1.8726,1.8763,1.8773,1.8818,1.8848,1.8893,1.8934,1.8974,1.9031,1.9079,1.9119,1.9169,1.9194,1.9201,1.9206,1.9205,1.9212,1.9174,1.9163,1.9199,1.9199,1.9199,1.9199,1.9199,1.9199,1.8622,1.8674,1.8696,1.8765,1.8796,1.8847,1.8872,1.8907,1.8939,1.9003,1.9043,1.9069,1.911,1.9163,1.9208,1.9218,1.9237,1.924,1.9252,1.9217,1.9214,1.9211,1.92,1.9243,1.9243,1.9286,1.9287,1.9287]}]]